Location: Crescent
(42.8242°N, 73.7329°W)
Time: 20:32:53
(UTC+00:00)

SR - Pass Details

Date: 25 February 2026
Orbit: 573 x 848 km, 66.7° (Epoch: 6 March)

Event Time Altitude Azimuth Distance (km) Brightness Sun altitude
Rises 08:07:24 0° 227° (SW) 2,774 - -38.3°
Reaches altitude 10° 08:09:39 10° 234° (SW) 1,893 - -38.0°
Maximum altitude 08:13:41 43° 307° (NW) 840 - -37.3°
Drops below altitude 10° 08:17:58 10° 20° (NNE) 2,002 - -36.6°
Exits shadow 08:18:03 10° 20° (NNE) 2,030 ? -36.6°
Sets 08:20:26 0° 27° (NNE) 2,955 ? -36.2°
